Terminal Aerodrome Forecast
Issued by NWS

Home | Current Version | Previous Version | Text Only | Print | Product List | Glossary On
Versions: 1 2 3 4 5 6 7 8 9 10 11 12 13
000
FTUS46 KSGX 250500
TAFONT
TAF
KONT 250527Z 2506/2612 25007KT P6SM SCT015 SCT200
     FM250800 24005KT P6SM OVC020
     FM251200 VRB05KT P6SM SCT025
     FM251800 06011G18KT P6SM SKC
     FM260200 VRB05KT P6SM SKC WS015/06020KT=

USA.gov is the U.S. government's official web portal to all federal, state and local government web resources and services.